Location: Unspecified
(0.0000°N, 0.0000°E)
Time: 21:04:10
(UTC+00:00)

STARLINK-32467 - Visible Passes

Search period start: 12 January 2025 00:00
Search period end: 22 January 2025 00:00
Orbit: 446 x 448 km, 53.2° (Epoch: 12 January)

Date Brightness Start Highest point End Pass type
(mag) Time Alt. Az. Time Alt. Az. Time Alt. Az.
17 Jan 4.8 18:53:56 10° NNE 18:56:13 16° NE 18:56:34 16° ENE visible
18 Jan 5.3 19:51:33 10° WNW 19:54:37 28° SW 19:57:41 10° S visible
19 Jan 4.1 19:12:32 10° NW 19:15:55 50° WSW 19:19:21 10° SSE visible
20 Jan 3.2 18:33:41 10° NNW 18:37:12 87° ENE 18:40:44 10° SE visible
